TimeEDT,TemperatureF,Dew PointF,Humidity,Sea Level PressureIn,VisibilityMPH,Wind Direction,Wind SpeedMPH,Gust SpeedMPH,PrecipitationIn,Events,Conditions,WindDirDegrees,DateUTC
12:53 AM,66.0,55.0,68,30.23,10.0,Calm,Calm,-,N/A,,Clear,0,2013-05-26 04:53:00
1:53 AM,61.0,54.0,78,30.21,10.0,Calm,Calm,-,N/A,,Clear,0,2013-05-26 05:53:00
2:53 AM,61.0,54.0,78,30.19,10.0,Calm,Calm,-,N/A,,Clear,0,2013-05-26 06:53:00
3:53 AM,59.0,53.1,81,30.20,10.0,Calm,Calm,-,N/A,,Clear,0,2013-05-26 07:53:00
4:53 AM,57.0,52.0,83,30.21,7.0,Calm,Calm,-,N/A,,Clear,0,2013-05-26 08:53:00
5:53 AM,57.0,52.0,83,30.22,10.0,Calm,Calm,-,N/A,,Clear,0,2013-05-26 09:53:00
6:53 AM,55.9,51.1,84,30.26,3.0,Calm,Calm,-,N/A,,Haze,0,2013-05-26 10:53:00
7:53 AM,64.9,57.9,78,30.26,10.0,Calm,Calm,-,N/A,,Clear,0,2013-05-26 11:53:00
8:53 AM,73.0,57.0,57,30.27,10.0,South,5.8,-,N/A,,Clear,180,2013-05-26 12:53:00
9:53 AM,78.1,53.1,42,30.28,10.0,South,6.9,-,N/A,,Clear,170,2013-05-26 13:53:00
10:53 AM,81.0,50.0,34,30.28,10.0,Calm,Calm,-,N/A,,Clear,0,2013-05-26 14:53:00
11:53 AM,84.0,50.0,31,30.28,10.0,Calm,Calm,-,N/A,,Clear,0,2013-05-26 15:53:00
12:53 PM,87.1,50.0,28,30.26,10.0,Variable,4.6,-,N/A,,Clear,0,2013-05-26 16:53:00
1:53 PM,89.1,48.9,25,30.24,10.0,NNE,5.8,-,N/A,,Clear,20,2013-05-26 17:53:00
2:53 PM,90.0,46.9,23,30.22,10.0,East,4.6,-,N/A,,Clear,90,2013-05-26 18:53:00
3:53 PM,90.0,46.9,23,30.20,10.0,NE,6.9,-,N/A,,Clear,40,2013-05-26 19:53:00
4:53 PM,91.0,48.0,23,30.19,10.0,North,6.9,-,N/A,,Clear,350,2013-05-26 20:53:00
5:53 PM,90.0,46.9,23,30.17,10.0,Calm,Calm,-,N/A,,Clear,0,2013-05-26 21:53:00
6:53 PM,88.0,46.0,23,30.17,10.0,East,3.5,-,N/A,,Clear,80,2013-05-26 22:53:00
7:53 PM,82.0,53.1,37,30.18,10.0,NNE,3.5,-,N/A,,Clear,30,2013-05-26 23:53:00
8:53 PM,73.0,55.0,53,30.17,10.0,Calm,Calm,-,N/A,,Clear,0,2013-05-27 00:53:00
9:53 PM,69.1,55.9,63,30.19,10.0,Calm,Calm,-,N/A,,Clear,0,2013-05-27 01:53:00
10:53 PM,66.9,55.9,68,30.20,10.0,Calm,Calm,-,N/A,,Clear,0,2013-05-27 02:53:00
11:53 PM,73.0,55.9,55,30.21,10.0,SSE,5.8,-,N/A,,Clear,150,2013-05-27 03:53:00